Location: Byszew
(52.1813°N, 19.2693°E)
Time: 21:39:25
(UTC+00:00)

Cosmos 1867 - Pass Details

Date: 03 March 2021
Orbit: 774 x 801 km, 65.0° (Epoch: 15 April)

Event Time Altitude Azimuth Distance (km) Brightness Sun altitude
Rises 17:20:21 0° 239° (WSW) 3,281 7.8 -9.1°
Reaches altitude 10° 17:22:49 10° 244° (WSW) 2,359 7.1 -9.5°
Maximum altitude 17:28:08 53° 321° (NW) 974 4.3 -10.3°
Drops below altitude 10° 17:33:30 10° 39° (NE) 2,384 5.7 -11.1°
Enters shadow 17:35:47 - 43° (NE) 3,233 6.4 -11.4°
